TimeAKDT,TemperatureF,Dew PointF,Humidity,Sea Level PressureIn,VisibilityMPH,Wind Direction,Wind SpeedMPH,Gust SpeedMPH,PrecipitationIn,Events,Conditions,WindDirDegrees,DateUTC
12:53 AM,62.1,46.0,56,29.69,10.0,North,3.5,-,N/A,,Scattered Clouds,10,2013-06-23 08:53:00
1:53 AM,59.0,45.0,60,29.70,10.0,Calm,Calm,-,N/A,,Scattered Clouds,0,2013-06-23 09:53:00
2:53 AM,55.0,44.1,67,29.70,10.0,NE,8.1,-,N/A,,Scattered Clouds,40,2013-06-23 10:53:00
3:53 AM,55.9,43.0,62,29.70,10.0,North,3.5,-,N/A,,Scattered Clouds,360,2013-06-23 11:53:00
4:53 AM,55.9,44.1,64,29.70,10.0,Calm,Calm,-,N/A,,Scattered Clouds,0,2013-06-23 12:53:00
5:53 AM,60.1,44.1,55,29.69,10.0,Calm,Calm,-,N/A,,Scattered Clouds,0,2013-06-23 13:53:00
6:53 AM,60.1,45.0,57,29.70,10.0,NE,5.8,-,N/A,,Scattered Clouds,40,2013-06-23 14:53:00
7:53 AM,64.0,44.1,48,29.70,10.0,NE,5.8,-,N/A,,Scattered Clouds,40,2013-06-23 15:53:00
8:53 AM,68.0,43.0,40,29.68,10.0,Calm,Calm,-,N/A,,Partly Cloudy,0,2013-06-23 16:53:00
9:53 AM,69.1,44.1,40,29.68,10.0,Calm,Calm,-,N/A,,Partly Cloudy,0,2013-06-23 17:53:00
10:53 AM,73.0,43.0,34,29.66,10.0,South,3.5,-,N/A,,Partly Cloudy,180,2013-06-23 18:53:00
11:53 AM,73.9,44.1,34,29.65,10.0,SSE,5.8,-,N/A,,Partly Cloudy,160,2013-06-23 19:53:00
12:53 PM,75.9,45.0,33,29.64,10.0,Variable,3.5,-,N/A,,Partly Cloudy,0,2013-06-23 20:53:00
1:53 PM,79.0,39.9,25,29.62,10.0,SSE,6.9,-,N/A,,Partly Cloudy,150,2013-06-23 21:53:00
2:53 PM,81.0,37.0,21,29.61,10.0,NW,6.9,-,N/A,,Partly Cloudy,320,2013-06-23 22:53:00
3:53 PM,82.0,35.1,18,29.60,10.0,Variable,3.5,-,N/A,,Partly Cloudy,0,2013-06-23 23:53:00
4:53 PM,82.9,34.0,17,29.58,10.0,Variable,3.5,-,N/A,,Partly Cloudy,0,2013-06-24 00:53:00
5:53 PM,84.0,39.0,20,29.58,10.0,NW,4.6,-,N/A,,Scattered Clouds,320,2013-06-24 01:53:00
6:53 PM,82.0,36.0,19,29.57,10.0,NE,3.5,-,N/A,,Scattered Clouds,40,2013-06-24 02:53:00
7:53 PM,82.0,42.1,24,29.57,10.0,North,10.4,-,N/A,,Mostly Cloudy,10,2013-06-24 03:53:00
8:53 PM,79.0,46.0,31,29.58,10.0,NE,13.8,-,N/A,,Mostly Cloudy,50,2013-06-24 04:53:00
9:53 PM,77.0,48.0,36,29.58,10.0,North,12.7,-,N/A,,Mostly Cloudy,360,2013-06-24 05:53:00
10:53 PM,73.9,46.9,38,29.59,10.0,North,6.9,-,N/A,,Scattered Clouds,350,2013-06-24 06:53:00
11:53 PM,72.0,46.0,40,29.60,10.0,North,8.1,-,N/A,,Mostly Cloudy,350,2013-06-24 07:53:00